"Pseudo-MPEC" for CDD9E52

Created 2025 Jun 13 10:31:02 UT using Find_Orb

Click here for an explanation of pseudo-MPECs

 
 Astrometry: 
     CDD9E52*1C2025 06 06.42140022 29 46.158-03 01 09.62   ~66BV       VNEOCPG96
     CDD9E52 1C2025 06 06.42659122 29 46.774-03 01 06.67   ~66BV 20.19GVNEOCPG96
     CDD9E52 1C2025 06 06.43179622 29 47.368-03 01 03.90   ~66BV 20.16GVNEOCPG96
     CDD9E52 1C2025 06 06.43699622 29 47.893-03 01 02.21   ~66BV       VNEOCPG96

Station data:
(G96) Mt. Lemmon Survey  (N32.442729 W110.788720)  US/Arizona.  Observer E.
   J. Christensen.  + 10K CCD.

Orbital elements:  CDD9E52
   Perihelion 2025 Aug 3.43390 +/- 70.2 TT = 10:24:48 (JD 2460890.93390)
Epoch 2025 Jun  6.0 TT = JDT 2460832.5   Earth MOID: 0.0027   Ve: 0.0281
M 283.24629536 +/- 60               Me: 0.0308                   AutoNEOCP
n   1.31351333 +/- 0.919            Peri.  350.50921 +/- 60
a   0.82574583 +/- 0.385            Node   104.84175 +/- 32
e   0.9786635 +/- 0.256             Incl.  100.50271 +/- 60
P   0.750/274.069d         H 18.99  G  0.15   U 12.7  SR
q 0.01761847 +/- 0.545    Q 1.63387319 +/- 28.9           (J2000 ecliptic)
From 4 observations 2025 June 6 (22.5 min); mean residual 0".34
Residuals in arcseconds: 
250606 G96  .31-  .27-    250606 G96  .44+  .45+    
250606 G96  .24+  .18+    250606 G96  .38-  .36-    

Ephemerides (geocentric):
Date (UTC) HH   RA             Dec           delta  r     elong  mag " sig PA
---- --------  ------------   ------------  ------ ------ -----  --- --------
2025 06 13 11  22 46 34.182   -01 53 00.38  .47281 1.1919  99.9 19.8  56d  92
2025 06 13 12  22 46 41.785   -01 52 30.49  .47183 1.1915 100.0 19.8  57d  92
2025 06 13 13  22 46 49.414   -01 52 00.50  .47085 1.1910 100.0 19.8  57d  92
2025 06 13 14  22 46 57.070   -01 51 30.42  .46988 1.1905 100.0 19.8  57d  92
2025 06 13 15  22 47 04.753   -01 51 00.25  .46890 1.1900 100.0 19.8  57d  92
2025 06 13 16  22 47 12.462   -01 50 29.97  .46792 1.1896 100.0 19.8  57d  92
2025 06 13 17  22 47 20.199   -01 49 59.60  .46695 1.1891 100.0 19.8  57d  92
2025 06 13 18  22 47 27.964   -01 49 29.14  .46597 1.1886 100.0 19.8  57d  92
2025 06 13 19  22 47 35.756   -01 48 58.57  .46499 1.1881 100.0 19.8  57d  92
2025 06 13 20  22 47 43.575   -01 48 27.91  .46402 1.1876 100.0 19.8  58d  92
2025 06 13 21  22 47 51.423   -01 47 57.15  .46304 1.1872 100.0 19.8  58d  92
2025 06 13 22  22 47 59.299   -01 47 26.28  .46206 1.1867 100.0 19.8  58d  92
2025 06 13 23  22 48 07.203   -01 46 55.32  .46109 1.1862 100.0 19.7  58d  92
2025 06 14 00  22 48 15.135   -01 46 24.25  .46011 1.1857 100.0 19.7  58d  92
2025 06 14 01  22 48 23.097   -01 45 53.08  .45913 1.1852 100.0 19.7  58d  92
2025 06 14 02  22 48 31.087   -01 45 21.81  .45816 1.1848 100.0 19.7  58d  92
2025 06 14 03  22 48 39.106   -01 44 50.44  .45718 1.1843 100.1 19.7  58d  92
2025 06 14 04  22 48 47.155   -01 44 18.96  .45621 1.1838 100.1 19.7  58d  92
2025 06 14 05  22 48 55.233   -01 43 47.37  .45523 1.1833 100.1 19.7  58d  92
2025 06 14 06  22 49 03.341   -01 43 15.68  .45425 1.1828 100.1 19.7  58d  92
2025 06 14 07  22 49 11.478   -01 42 43.88  .45328 1.1823 100.1 19.7  58d  92
2025 06 14 08  22 49 19.646   -01 42 11.97  .45230 1.1819 100.1 19.7  58d  92
2025 06 14 09  22 49 27.844   -01 41 39.96  .45133 1.1814 100.1 19.7  58d  92
2025 06 14 10  22 49 36.073   -01 41 07.84  .45035 1.1809 100.1 19.7  58d  92
2025 06 14 11  22 49 44.332   -01 40 35.60  .44937 1.1804 100.1 19.7  58d  92
2025 06 14 12  22 49 52.622   -01 40 03.26  .44840 1.1799 100.1 19.7  58d  92
2025 06 14 13  22 50 00.943   -01 39 30.81  .44742 1.1794 100.1 19.7  59d  92
2025 06 14 14  22 50 09.296   -01 38 58.24  .44645 1.1789 100.1 19.7  59d  92
2025 06 14 15  22 50 17.680   -01 38 25.56  .44547 1.1785 100.1 19.7  59d  92
2025 06 14 16  22 50 26.095   -01 37 52.77  .44450 1.1780 100.1 19.7  59d  92
2025 06 14 17  22 50 34.543   -01 37 19.86  .44352 1.1775 100.1 19.7  59d  92
2025 06 14 18  22 50 43.023   -01 36 46.84  .44255 1.1770 100.1 19.7  59d  92
2025 06 14 19  22 50 51.536   -01 36 13.70  .44157 1.1765 100.1 19.7  59d  92
2025 06 14 20  22 51 00.081   -01 35 40.44  .44060 1.1760 100.1 19.7  59d  92
2025 06 14 21  22 51 08.659   -01 35 07.07  .43962 1.1755 100.1 19.6  59d  92
2025 06 14 22  22 51 17.270   -01 34 33.57  .43865 1.1750 100.1 19.6  59d  92
2025 06 14 23  22 51 25.914   -01 33 59.96  .43767 1.1745 100.1 19.6  59d  92
2025 06 15 00  22 51 34.592   -01 33 26.23  .43670 1.1741 100.1 19.6  59d  92
2025 06 15 01  22 51 43.304   -01 32 52.38  .43572 1.1736 100.1 19.6  60d  92
2025 06 15 02  22 51 52.050   -01 32 18.40  .43475 1.1731 100.1 19.6  60d  92
2025 06 15 03  22 52 00.830   -01 31 44.30  .43377 1.1726 100.1 19.6  60d  92
2025 06 15 04  22 52 09.644   -01 31 10.08  .43280 1.1721 100.1 19.6  60d  92
2025 06 15 05  22 52 18.493   -01 30 35.73  .43182 1.1716 100.1 19.6  60d  92
2025 06 15 06  22 52 27.378   -01 30 01.26  .43085 1.1711 100.1 19.6  60d  92
2025 06 15 07  22 52 36.297   -01 29 26.66  .42987 1.1706 100.2 19.6  60d  92
2025 06 15 08  22 52 45.252   -01 28 51.93  .42890 1.1701 100.2 19.6  61d  92
2025 06 15 09  22 52 54.243   -01 28 17.08  .42793 1.1696 100.2 19.6  61d  92
2025 06 15 10  22 53 03.269   -01 27 42.09  .42695 1.1691 100.2 19.6  61d  92